TimeCDT,TemperatureF,Dew PointF,Humidity,Sea Level PressureIn,VisibilityMPH,Wind Direction,Wind SpeedMPH,Gust SpeedMPH,PrecipitationIn,Events,Conditions,WindDirDegrees,DateUTC
12:15 AM,45.5,41.7,87,29.62,10.0,Calm,Calm,-,N/A,,Clear,0,2013-04-08 05:15:00
12:35 AM,46.0,41.2,83,29.63,10.0,Calm,Calm,-,N/A,,Clear,0,2013-04-08 05:35:00
12:55 AM,43.7,40.8,90,29.62,10.0,SE,3.5,-,N/A,,Clear,130,2013-04-08 05:55:00
1:15 AM,43.7,40.8,90,29.63,10.0,Calm,Calm,-,N/A,,Clear,0,2013-04-08 06:15:00
1:35 AM,41.4,39.0,91,29.63,10.0,Calm,Calm,-,N/A,,Clear,0,2013-04-08 06:35:00
1:55 AM,40.5,38.3,92,29.65,10.0,Calm,Calm,-,N/A,,Clear,0,2013-04-08 06:55:00
2:15 AM,41.9,39.7,92,29.65,10.0,Calm,Calm,-,N/A,,Clear,0,2013-04-08 07:15:00
2:35 AM,43.9,41.4,91,29.65,10.0,Calm,Calm,-,N/A,,Clear,0,2013-04-08 07:35:00
2:55 AM,43.5,40.8,90,29.64,10.0,ESE,3.5,-,N/A,,Clear,120,2013-04-08 07:55:00
3:15 AM,44.2,40.1,85,29.64,10.0,Calm,Calm,-,N/A,,Clear,0,2013-04-08 08:15:00
3:35 AM,42.6,39.6,89,29.63,10.0,South,3.5,-,N/A,,Scattered Clouds,170,2013-04-08 08:35:00
3:55 AM,40.8,38.8,93,29.64,7.0,Calm,Calm,-,N/A,,Scattered Clouds,0,2013-04-08 08:55:00
4:15 AM,44.4,42.1,91,29.63,10.0,Calm,Calm,-,N/A,,Clear,0,2013-04-08 09:15:00
4:35 AM,45.7,41.9,87,29.63,10.0,Calm,Calm,-,N/A,,Clear,0,2013-04-08 09:35:00
4:55 AM,45.5,41.9,87,29.63,10.0,Calm,Calm,-,N/A,,Clear,0,2013-04-08 09:55:00
5:15 AM,42.8,39.9,90,29.63,10.0,Calm,Calm,-,N/A,,Scattered Clouds,0,2013-04-08 10:15:00
5:35 AM,44.1,41.5,91,29.63,10.0,Calm,Calm,-,N/A,,Scattered Clouds,0,2013-04-08 10:35:00
5:55 AM,46.0,43.0,89,29.63,10.0,Calm,Calm,-,N/A,,Scattered Clouds,0,2013-04-08 10:55:00
6:15 AM,47.3,43.9,88,29.63,10.0,South,4.6,-,N/A,,Mostly Cloudy,170,2013-04-08 11:15:00
6:35 AM,47.3,44.1,88,29.62,10.0,SE,4.6,-,N/A,,Overcast,140,2013-04-08 11:35:00
6:55 AM,47.8,44.8,89,29.62,10.0,SSE,6.9,-,N/A,,Overcast,160,2013-04-08 11:55:00
7:15 AM,48.7,45.9,90,29.63,5.0,SSE,4.6,-,N/A,,Overcast,160,2013-04-08 12:15:00
7:35 AM,49.1,46.9,92,29.62,1.5,SSE,4.6,-,N/A,,Overcast,150,2013-04-08 12:35:00
7:55 AM,50.0,48.6,95,29.62,0.5,SSW,8.1,-,N/A,Fog,Fog,210,2013-04-08 12:55:00
8:15 AM,50.4,49.1,95,29.63,0.8,SSW,10.4,-,N/A,,Overcast,200,2013-04-08 13:15:00
8:35 AM,50.5,49.5,96,29.64,2.0,SSE,3.5,-,N/A,,Overcast,160,2013-04-08 13:35:00
8:55 AM,51.4,50.4,96,29.64,4.0,SW,4.6,-,N/A,,Overcast,220,2013-04-08 13:55:00
9:15 AM,52.2,49.8,92,29.63,7.0,SW,8.1,-,N/A,,Mostly Cloudy,230,2013-04-08 14:15:00
9:35 AM,52.9,49.5,88,29.65,10.0,West,5.8,-,N/A,,Scattered Clouds,260,2013-04-08 14:35:00
9:55 AM,53.6,50.2,88,29.65,10.0,SW,4.6,-,N/A,,Mostly Cloudy,230,2013-04-08 14:55:00
10:15 AM,55.2,50.7,85,29.64,10.0,SW,4.6,-,N/A,,Scattered Clouds,230,2013-04-08 15:15:00
10:35 AM,57.6,51.4,80,29.66,10.0,Calm,Calm,-,N/A,,Clear,0,2013-04-08 15:35:00
10:55 AM,61.7,51.6,69,29.66,10.0,WSW,5.8,-,N/A,,Clear,240,2013-04-08 15:55:00
11:15 AM,64.8,50.0,59,29.66,10.0,WSW,4.6,-,N/A,,Clear,250,2013-04-08 16:15:00
11:35 AM,67.5,49.5,52,29.67,10.0,SW,5.8,-,N/A,,Clear,230,2013-04-08 16:35:00
11:55 AM,69.8,46.9,44,29.67,10.0,WSW,5.8,-,N/A,,Clear,240,2013-04-08 16:55:00
12:15 PM,71.6,41.4,33,29.66,10.0,NW,8.1,-,N/A,,Clear,320,2013-04-08 17:15:00
12:35 PM,72.7,37.6,28,29.66,10.0,NW,5.8,-,N/A,,Clear,310,2013-04-08 17:35:00
12:55 PM,73.6,37.4,27,29.66,10.0,Calm,Calm,-,N/A,,Clear,0,2013-04-08 17:55:00
1:15 PM,73.2,37.6,27,29.66,10.0,WSW,3.5,-,N/A,,Clear,240,2013-04-08 18:15:00
1:35 PM,75.0,34.9,23,29.65,10.0,WNW,5.8,-,N/A,,Clear,290,2013-04-08 18:35:00
1:55 PM,74.3,36.3,25,29.65,10.0,West,4.6,-,N/A,,Clear,270,2013-04-08 18:55:00
2:15 PM,74.5,34.7,23,29.64,10.0,Calm,Calm,-,N/A,,Clear,0,2013-04-08 19:15:00
2:35 PM,75.7,34.2,22,29.64,10.0,West,8.1,-,N/A,,Clear,260,2013-04-08 19:35:00
2:55 PM,76.8,35.2,22,29.64,10.0,West,9.2,-,N/A,,Clear,270,2013-04-08 19:55:00
3:15 PM,76.8,34.7,22,29.64,10.0,West,6.9,-,N/A,,Clear,270,2013-04-08 20:15:00
3:35 PM,75.6,43.0,31,29.63,10.0,SE,3.5,-,N/A,,Scattered Clouds,130,2013-04-08 20:35:00
3:55 PM,77.2,41.4,28,29.63,10.0,East,8.1,-,N/A,,Mostly Cloudy,100,2013-04-08 20:55:00
4:15 PM,76.6,36.5,23,29.63,10.0,SE,4.6,-,N/A,,Mostly Cloudy,130,2013-04-08 21:15:00
4:35 PM,75.9,37.4,25,29.62,10.0,SSE,8.1,-,N/A,,Scattered Clouds,150,2013-04-08 21:35:00
4:55 PM,76.1,39.7,27,29.63,10.0,SE,12.7,16.1,N/A,,Clear,140,2013-04-08 21:55:00
5:15 PM,74.8,40.8,29,29.64,10.0,East,4.6,-,N/A,,Scattered Clouds,100,2013-04-08 22:15:00
5:35 PM,73.4,43.0,34,29.65,10.0,ENE,8.1,-,N/A,,Scattered Clouds,60,2013-04-08 22:35:00
5:55 PM,70.9,43.7,38,29.66,7.0,ENE,10.4,19.6,N/A,,Mostly Cloudy,60,2013-04-08 22:55:00
6:15 PM,70.0,43.7,39,29.64,10.0,NE,15.0,25.3,N/A,,Overcast,40,2013-04-08 23:15:00
6:35 PM,68.9,43.9,40,29.67,10.0,ENE,9.2,20.7,N/A,,Overcast,60,2013-04-08 23:35:00
6:55 PM,68.7,52.3,56,29.68,10.0,SE,10.4,18.4,N/A,,Overcast,140,2013-04-08 23:55:00
7:15 PM,67.5,54.5,63,29.68,10.0,SE,9.2,-,N/A,Thunderstorm,Thunderstorm,140,2013-04-09 00:15:00
7:35 PM,65.3,51.6,61,29.68,10.0,NE,18.4,23.0,N/A,,Overcast,40,2013-04-09 00:35:00
7:55 PM,61.0,50.0,67,29.69,7.0,NNE,19.6,28.8,N/A,,Overcast,30,2013-04-09 00:55:00
8:15 PM,59.9,50.0,70,29.69,7.0,NNE,19.6,24.2,N/A,,Overcast,30,2013-04-09 01:15:00
8:35 PM,58.8,49.8,72,29.70,7.0,NNE,21.9,29.9,N/A,,Scattered Clouds,30,2013-04-09 01:35:00
8:55 PM,58.1,49.6,73,29.71,7.0,NNE,19.6,28.8,N/A,,Clear,30,2013-04-09 01:55:00
9:15 PM,57.2,49.6,76,29.72,7.0,NNE,21.9,27.6,N/A,,Scattered Clouds,30,2013-04-09 02:15:00
9:35 PM,55.9,49.1,78,29.73,7.0,NNE,19.6,25.3,N/A,,Clear,30,2013-04-09 02:35:00
9:55 PM,54.0,47.8,80,29.71,7.0,NNE,24.2,32.2,N/A,,Clear,30,2013-04-09 02:55:00
10:15 PM,52.2,47.3,83,29.73,5.0,NE,21.9,35.7,N/A,,Haze,40,2013-04-09 03:15:00
10:35 PM,50.0,46.8,89,29.67,4.0,NE,26.5,36.8,N/A,Rain,Light Rain,40,2013-04-09 03:35:00
10:55 PM,48.9,45.9,89,29.68,4.0,NE,28.8,40.3,N/A,Thunderstorm,Overcast,40,2013-04-09 03:55:00
11:15 PM,48.2,45.5,90,29.68,4.0,NE,31.1,39.1,N/A,Rain-Thunderstorm,Rain,40,2013-04-09 04:15:00
11:35 PM,47.8,45.5,92,29.70,2.0,NNE,27.6,34.5,0.05,Rain-Thunderstorm,Light Thunderstorms and Rain,30,2013-04-09 04:35:00
11:55 PM,47.1,44.6,91,29.70,1.5,NNE,23.0,28.8,0.22,Thunderstorm,Unknown,30,2013-04-09 04:55:00